Wind From: 11-12-2017 04:25 Until: 16:00 warning for: Wind Level: Orange info button

Power and phone distribution networks may be disrupted for relatively long periods., Roofs and chimneys can be damaged. , Tree branches may break. , Vehicles can be deported. , Traffic may be disrupted, particularly on secondary roads in forest areas. Limit your trips. , Limit your speed in highway driving, especially if you drive a vehicle or hitch sensitive to wind. , Do not go for walks in forests or along the coast., In town, be vigilant against possible falling objects., Do not work on roofs and do not touch any electrical line fallen on the ground., Store or secure sensitive objects to wind or likely to be damaged., Always install power generators outside buildings. 


Meteo18 Weather Cam more information Meteo18 Weather Cam


Thunder radar more information blitzortung!


Rain radar more information rain snow radar


Visit our other weather sites:

Template documentation
and downloads

And another site



Weather Underground History page Text

Daily Summary for February 22, 2017 Units:  Metric    English   Both
« Previous Day
Next Day »
Daily Weekly Monthly Yearly Custom
  High: Low: Average:
Temperature: 9.8 °C 7.8 °C 8.8 °C
Dew Point: 8.4 °C 6.2 °C 7 °C
Humidity: 95 % 83 % 89 %
Wind Speed: 19.3 km/h 1.6 km/h 9.3 km/h
Wind Gust: 32.2 km/h - -
Wind:- - SW
Pressure: 1023.2 hPa 1017.8 hPa -
Precipitation: 0.0 mm    
Historical Graphs
 
 
Tabular Data for February 22, 2017
Time Temperature Dew Point Pressure Wind Wind Speed Wind Gust Humidity Rainfall Rate (Hourly)
00:02 9.3 °C 8.4 °C 1023.2 hPa WSW 4.8 km/h 16.1 km/h 94 % 0.0 mm
00:12 9.3 °C 8.4 °C 1023.2 hPa WSW 3.2 km/h 16.1 km/h 94 % 0.0 mm
00:17 9.3 °C 8.4 °C 1023.2 hPa WSW 16.1 km/h 16.1 km/h 94 % 0.0 mm
00:22 9.3 °C 8.4 °C 1023.2 hPa West 6.4 km/h 16.1 km/h 94 % 0.0 mm
00:27 9.3 °C 8.4 °C 1023.2 hPa West 6.4 km/h 16.1 km/h 94 % 0.0 mm
00:32 9.3 °C 8.4 °C 1023.2 hPa SW 9.7 km/h 19.3 km/h 94 % 0.0 mm
00:37 9.3 °C 8.2 °C 1023.2 hPa WSW 9.7 km/h 19.3 km/h 93 % 0.0 mm
00:42 9.3 °C 8.4 °C 1023.2 hPa WSW 6.4 km/h 19.3 km/h 94 % 0.0 mm
00:47 9.3 °C 8.4 °C 1022.9 hPa SW 6.4 km/h 16.1 km/h 94 % 0.0 mm
00:52 9.3 °C 8.4 °C 1023.2 hPa SW 3.2 km/h 16.1 km/h 94 % 0.0 mm
01:02 9.2 °C 8.3 °C 1022.9 hPa West 4.8 km/h 11.3 km/h 94 % 0.0 mm
01:07 9.2 °C 8.3 °C 1022.9 hPa SW 9.7 km/h 12.9 km/h 94 % 0.0 mm
01:12 9.2 °C 8.3 °C 1022.9 hPa West 9.7 km/h 12.9 km/h 94 % 0.0 mm
01:17 9.2 °C 8.1 °C 1022.9 hPa WSW 11.3 km/h 17.7 km/h 93 % 0.0 mm
01:22 9.2 °C 8.1 °C 1022.9 hPa SW 8.0 km/h 17.7 km/h 93 % 0.0 mm
01:27 9.1 °C 8.0 °C 1022.9 hPa WSW 9.7 km/h 16.1 km/h 93 % 0.0 mm
01:32 9.1 °C 8.0 °C 1022.9 hPa SW 4.8 km/h 16.1 km/h 93 % 0.0 mm
01:37 9.1 °C 8.0 °C 1022.9 hPa SW 6.4 km/h 16.1 km/h 93 % 0.0 mm
01:42 9.1 °C 8.0 °C 1022.9 hPa WSW 9.7 km/h 16.1 km/h 93 % 0.0 mm
01:47 9.1 °C 8.0 °C 1022.9 hPa SW 11.3 km/h 14.5 km/h 93 % 0.0 mm
01:52 9.0 °C 7.9 °C 1022.6 hPa WSW 6.4 km/h 14.5 km/h 93 % 0.0 mm
01:57 9.0 °C 7.9 °C 1022.6 hPa SW 8.0 km/h 16.1 km/h 93 % 0.0 mm
02:02 8.9 °C 8.0 °C 1022.6 hPa SW 6.4 km/h 16.1 km/h 94 % 0.0 mm
02:07 8.9 °C 8.0 °C 1022.2 hPa SW 8.0 km/h 16.1 km/h 94 % 0.0 mm
02:12 8.9 °C 8.0 °C 1022.6 hPa SW 6.4 km/h 16.1 km/h 94 % 0.0 mm
02:17 8.8 °C 7.9 °C 1022.2 hPa WSW 12.9 km/h 16.1 km/h 94 % 0.0 mm
02:22 8.8 °C 7.9 °C 1022.2 hPa SW 12.9 km/h 16.1 km/h 94 % 0.0 mm
02:27 8.8 °C 7.9 °C 1022.2 hPa SW 12.9 km/h 16.1 km/h 94 % 0.0 mm
02:32 8.8 °C 7.9 °C 1022.2 hPa SW 4.8 km/h 16.1 km/h 94 % 0.0 mm
02:42 8.7 °C 7.9 °C 1022.2 hPa SW 11.3 km/h 16.1 km/h 95 % 0.0 mm
02:47 8.7 °C 7.8 °C 1022.2 hPa SSW 4.8 km/h 17.7 km/h 94 % 0.0 mm
02:52 8.7 °C 7.9 °C 1022.2 hPa SW 4.8 km/h 17.7 km/h 95 % 0.0 mm
02:57 8.7 °C 7.8 °C 1022.2 hPa WSW 1.6 km/h 16.1 km/h 94 % 0.0 mm
03:02 8.7 °C 7.8 °C 1022.2 hPa West 9.7 km/h 16.1 km/h 94 % 0.0 mm
03:07 8.7 °C 7.8 °C 1022.2 hPa SW 3.2 km/h 16.1 km/h 94 % 0.0 mm
03:12 8.7 °C 7.8 °C 1022.2 hPa WSW 9.7 km/h 16.1 km/h 94 % 0.0 mm
03:17 8.7 °C 7.8 °C 1022.2 hPa SW 11.3 km/h 16.1 km/h 94 % 0.0 mm
03:22 8.7 °C 7.8 °C 1021.9 hPa WSW 11.3 km/h 16.1 km/h 94 % 0.0 mm
03:27 8.7 °C 7.8 °C 1021.9 hPa SW 9.7 km/h 20.9 km/h 94 % 0.0 mm
03:32 8.7 °C 7.8 °C 1021.9 hPa WSW 8.0 km/h 20.9 km/h 94 % 0.0 mm
03:37 8.7 °C 7.8 °C 1021.9 hPa SW 4.8 km/h 20.9 km/h 94 % 0.0 mm
03:42 8.6 °C 7.5 °C 1021.9 hPa WSW 6.4 km/h 20.9 km/h 93 % 0.0 mm
03:47 8.6 °C 7.5 °C 1021.9 hPa West 11.3 km/h 17.7 km/h 93 % 0.0 mm
03:52 8.6 °C 7.5 °C 1021.9 hPa WSW 8.0 km/h 17.7 km/h 93 % 0.0 mm
03:57 8.6 °C 7.5 °C 1021.6 hPa West 11.3 km/h 16.1 km/h 93 % 0.0 mm
04:02 8.6 °C 7.4 °C 1021.6 hPa WSW 11.3 km/h 16.1 km/h 92 % 0.0 mm
04:07 8.6 °C 7.2 °C 1021.9 hPa WSW 17.7 km/h 22.5 km/h 91 % 0.0 mm
04:12 8.6 °C 7.2 °C 1021.9 hPa WSW 9.7 km/h 22.5 km/h 91 % 0.0 mm
04:17 8.5 °C 7.0 °C 1021.9 hPa South 6.4 km/h 22.5 km/h 90 % 0.0 mm
04:22 8.5 °C 6.8 °C 1021.9 hPa WSW 11.3 km/h 22.5 km/h 89 % 0.0 mm
04:27 8.5 °C 6.8 °C 1021.9 hPa SW 8.0 km/h 19.3 km/h 89 % 0.0 mm
04:32 8.5 °C 6.8 °C 1021.9 hPa West 16.1 km/h 19.3 km/h 89 % 0.0 mm
04:37 8.5 °C 6.6 °C 1021.9 hPa SW 12.9 km/h 20.9 km/h 88 % 0.0 mm
04:42 8.6 °C 6.6 °C 1021.9 hPa SW 9.7 km/h 20.9 km/h 87 % 0.0 mm
04:47 8.5 °C 6.6 °C 1021.9 hPa WNW 8.0 km/h 25.7 km/h 88 % 0.0 mm
04:52 8.5 °C 6.5 °C 1021.9 hPa SW 8.0 km/h 25.7 km/h 87 % 0.0 mm
04:57 8.5 °C 6.6 °C 1021.9 hPa SW 9.7 km/h 25.7 km/h 88 % 0.0 mm
05:02 8.5 °C 6.8 °C 1021.9 hPa WSW 6.4 km/h 25.7 km/h 89 % 0.0 mm
05:12 8.4 °C 6.9 °C 1021.9 hPa SSW 4.8 km/h 14.5 km/h 90 % 0.0 mm
05:17 8.3 °C 6.9 °C 1021.9 hPa South 4.8 km/h 14.5 km/h 91 % 0.0 mm
05:22 8.3 °C 6.9 °C 1021.9 hPa SW 11.3 km/h 14.5 km/h 91 % 0.0 mm
05:32 8.2 °C 7.0 °C 1021.9 hPa WSW 8.0 km/h 17.7 km/h 92 % 0.0 mm
05:42 8.2 °C 7.0 °C 1021.9 hPa SSW 6.4 km/h 19.3 km/h 92 % 0.0 mm
05:52 8.1 °C 7.0 °C 1021.9 hPa WSW 8.0 km/h 19.3 km/h 93 % 0.0 mm
05:57 8.1 °C 7.0 °C 1021.9 hPa West 4.8 km/h 14.5 km/h 93 % 0.0 mm
06:02 8.1 °C 7.0 °C 1021.9 hPa SW 6.4 km/h 14.5 km/h 93 % 0.0 mm
06:12 8.0 °C 6.9 °C 1021.6 hPa SW 11.3 km/h 16.1 km/h 93 % 0.0 mm
06:17 8.0 °C 6.9 °C 1021.6 hPa SSW 4.8 km/h 17.7 km/h 93 % 0.0 mm
06:22 8.0 °C 6.9 °C 1021.6 hPa WSW 6.4 km/h 17.7 km/h 93 % 0.0 mm
06:32 8.0 °C 7.1 °C 1021.6 hPa SSW 8.0 km/h 17.7 km/h 94 % 0.0 mm
06:42 8.0 °C 7.1 °C 1021.9 hPa SW 8.0 km/h 19.3 km/h 94 % 0.0 mm
06:47 8.0 °C 7.1 °C 1021.9 hPa SW 12.9 km/h 19.3 km/h 94 % 0.0 mm
06:52 8.0 °C 7.1 °C 1021.9 hPa West 11.3 km/h 19.3 km/h 94 % 0.0 mm
06:57 8.0 °C 7.1 °C 1021.9 hPa WSW 6.4 km/h 19.3 km/h 94 % 0.0 mm
07:02 8.0 °C 7.1 °C 1021.9 hPa West 9.7 km/h 19.3 km/h 94 % 0.0 mm
07:12 7.9 °C 6.8 °C 1021.9 hPa WSW 9.7 km/h 20.9 km/h 93 % 0.0 mm
07:17 7.9 °C 6.8 °C 1021.9 hPa WSW 14.5 km/h 20.9 km/h 93 % 0.0 mm
07:22 7.9 °C 6.8 °C 1021.9 hPa SW 11.3 km/h 20.9 km/h 93 % 0.0 mm
07:27 7.9 °C 6.8 °C 1021.9 hPa SW 11.3 km/h 17.7 km/h 93 % 0.0 mm
07:32 7.9 °C 6.8 °C 1021.9 hPa WSW 4.8 km/h 17.7 km/h 93 % 0.0 mm
07:42 7.9 °C 6.8 °C 1021.9 hPa West 4.8 km/h 17.7 km/h 93 % 0.0 mm
07:47 7.9 °C 6.8 °C 1022.2 hPa WSW 9.7 km/h 17.7 km/h 93 % 0.0 mm
07:57 7.9 °C 6.8 °C 1022.2 hPa SW 11.3 km/h 17.7 km/h 93 % 0.0 mm
08:02 7.8 °C 6.7 °C 1022.2 hPa SW 4.8 km/h 17.7 km/h 93 % 0.0 mm
08:12 7.8 °C 6.7 °C 1022.2 hPa SW 8.0 km/h 16.1 km/h 93 % 0.0 mm
08:17 7.8 °C 6.7 °C 1022.2 hPa WSW 8.0 km/h 14.5 km/h 93 % 0.0 mm
08:22 7.8 °C 6.7 °C 1022.2 hPa WSW 9.7 km/h 14.5 km/h 93 % 0.0 mm
08:32 7.8 °C 6.7 °C 1022.2 hPa WSW 9.7 km/h 14.5 km/h 93 % 0.0 mm
08:42 7.8 °C 6.6 °C 1022.6 hPa SW 8.0 km/h 14.5 km/h 92 % 0.0 mm
08:52 7.8 °C 6.6 °C 1022.2 hPa SW 8.0 km/h 12.9 km/h 92 % 0.0 mm
09:02 7.8 °C 6.6 °C 1022.6 hPa SW 6.4 km/h 16.1 km/h 92 % 0.0 mm
09:12 7.8 °C 6.6 °C 1022.6 hPa SW 12.9 km/h 20.9 km/h 92 % 0.0 mm
09:17 7.8 °C 6.6 °C 1022.6 hPa SSW 4.8 km/h 16.1 km/h 92 % 0.0 mm
09:22 7.8 °C 6.6 °C 1022.6 hPa WSW 4.8 km/h 16.1 km/h 92 % 0.0 mm
09:32 7.8 °C 6.6 °C 1022.6 hPa SW 9.7 km/h 14.5 km/h 92 % 0.0 mm
09:42 7.8 °C 6.6 °C 1022.6 hPa SW 4.8 km/h 16.1 km/h 92 % 0.0 mm
09:52 7.8 °C 6.6 °C 1022.6 hPa SW 3.2 km/h 16.1 km/h 92 % 0.0 mm
09:57 7.8 °C 6.6 °C 1022.6 hPa SW 6.4 km/h 12.9 km/h 92 % 0.0 mm
10:02 7.8 °C 6.6 °C 1022.6 hPa SSW 11.3 km/h 12.9 km/h 92 % 0.0 mm
10:12 7.9 °C 6.7 °C 1022.6 hPa SW 6.4 km/h 17.7 km/h 92 % 0.0 mm
10:17 7.9 °C 6.7 °C 1022.6 hPa SW 4.8 km/h 16.1 km/h 92 % 0.0 mm
10:22 7.9 °C 6.7 °C 1022.2 hPa WSW 4.8 km/h 16.1 km/h 92 % 0.0 mm
10:32 7.9 °C 6.7 °C 1022.6 hPa SW 4.8 km/h 16.1 km/h 92 % 0.0 mm
10:42 7.9 °C 6.7 °C 1022.6 hPa SW 6.4 km/h 16.1 km/h 92 % 0.0 mm
10:47 7.9 °C 6.7 °C 1022.6 hPa WSW 6.4 km/h 14.5 km/h 92 % 0.0 mm
10:52 7.9 °C 6.7 °C 1022.6 hPa SW 6.4 km/h 14.5 km/h 92 % 0.0 mm
11:02 7.9 °C 6.7 °C 1022.6 hPa SW 6.4 km/h 12.9 km/h 92 % 0.0 mm
11:12 8.0 °C 6.8 °C 1022.6 hPa SW 9.7 km/h 16.1 km/h 92 % 0.0 mm
11:17 7.9 °C 6.7 °C 1022.6 hPa WSW 6.4 km/h 16.1 km/h 92 % 0.0 mm
11:22 7.9 °C 6.8 °C 1022.6 hPa WSW 8.0 km/h 16.1 km/h 93 % 0.0 mm
11:32 8.0 °C 6.9 °C 1022.2 hPa WSW 8.0 km/h 14.5 km/h 93 % 0.0 mm
11:37 8.0 °C 6.9 °C 1022.2 hPa WSW 4.8 km/h 12.9 km/h 93 % 0.0 mm
11:42 8.0 °C 6.9 °C 1022.6 hPa West 3.2 km/h 12.9 km/h 93 % 0.0 mm
11:47 8.1 °C 7.0 °C 1022.2 hPa SW 9.7 km/h 14.5 km/h 93 % 0.0 mm
11:52 8.1 °C 6.9 °C 1022.6 hPa West 8.0 km/h 14.5 km/h 92 % 0.0 mm
11:57 8.1 °C 6.9 °C 1022.2 hPa SW 11.3 km/h 17.7 km/h 92 % 0.0 mm
12:02 8.2 °C 7.0 °C 1022.2 hPa WSW 11.3 km/h 17.7 km/h 92 % 0.0 mm
12:12 8.2 °C 7.0 °C 1022.2 hPa WSW 8.0 km/h 19.3 km/h 92 % 0.0 mm
12:17 8.3 °C 6.9 °C 1022.2 hPa WSW 9.7 km/h 19.3 km/h 91 % 0.0 mm
12:22 8.3 °C 6.9 °C 1022.2 hPa SW 11.3 km/h 19.3 km/h 91 % 0.0 mm
12:27 8.3 °C 6.9 °C 1022.2 hPa WSW 4.8 km/h 19.3 km/h 91 % 0.0 mm
12:32 8.4 °C 7.0 °C 1022.2 hPa WSW 11.3 km/h 19.3 km/h 91 % 0.0 mm
12:37 8.4 °C 6.9 °C 1022.2 hPa SW 9.7 km/h 19.3 km/h 90 % 0.0 mm
12:42 8.5 °C 7.1 °C 1022.2 hPa SSW 11.3 km/h 19.3 km/h 91 % 0.0 mm
12:47 8.5 °C 7.0 °C 1022.2 hPa WSW 9.7 km/h 17.7 km/h 90 % 0.0 mm
12:52 8.5 °C 7.0 °C 1022.2 hPa SW 8.0 km/h 17.7 km/h 90 % 0.0 mm
12:57 8.5 °C 7.0 °C 1022.2 hPa West 8.0 km/h 17.7 km/h 90 % 0.0 mm
13:02 8.5 °C 7.0 °C 1021.9 hPa West 8.0 km/h 17.7 km/h 90 % 0.0 mm
13:07 8.6 °C 7.1 °C 1021.9 hPa West 6.4 km/h 22.5 km/h 90 % 0.0 mm
13:12 8.6 °C 7.1 °C 1021.9 hPa WSW 9.7 km/h 22.5 km/h 90 % 0.0 mm
13:17 8.7 °C 7.0 °C 1021.6 hPa WSW 12.9 km/h 22.5 km/h 89 % 0.0 mm
13:22 8.7 °C 7.0 °C 1021.6 hPa WSW 12.9 km/h 22.5 km/h 89 % 0.0 mm
13:27 8.7 °C 7.0 °C 1021.6 hPa WSW 11.3 km/h 20.9 km/h 89 % 0.0 mm
13:32 8.8 °C 7.1 °C 1021.6 hPa WSW 9.7 km/h 20.9 km/h 89 % 0.0 mm
13:37 8.9 °C 7.0 °C 1021.6 hPa SW 6.4 km/h 27.4 km/h 88 % 0.0 mm
13:42 9.1 °C 7.2 °C 1021.6 hPa WSW 16.1 km/h 27.4 km/h 88 % 0.0 mm
13:47 9.2 °C 7.1 °C 1021.6 hPa SW 14.5 km/h 25.7 km/h 87 % 0.0 mm
13:52 9.1 °C 7.1 °C 1021.6 hPa SSW 14.5 km/h 25.7 km/h 87 % 0.0 mm
13:57 9.1 °C 7.1 °C 1021.6 hPa WSW 11.3 km/h 22.5 km/h 87 % 0.0 mm
14:02 9.1 °C 7.1 °C 1021.6 hPa SW 8.0 km/h 22.5 km/h 87 % 0.0 mm
14:12 9.2 °C 7.1 °C 1021.2 hPa West 9.7 km/h 27.4 km/h 87 % 0.0 mm
14:17 9.3 °C 7.1 °C 1021.2 hPa SW 4.8 km/h 24.1 km/h 86 % 0.0 mm
14:22 9.3 °C 7.1 °C 1021.2 hPa SW 8.0 km/h 24.1 km/h 86 % 0.0 mm
14:32 9.2 °C 6.8 °C 1021.2 hPa SW 19.3 km/h 24.1 km/h 85 % 0.0 mm
14:42 9.3 °C 7.1 °C 1020.9 hPa SSW 4.8 km/h 30.6 km/h 86 % 0.0 mm
14:47 9.3 °C 7.1 °C 1020.9 hPa SW 16.1 km/h 22.5 km/h 86 % 0.0 mm
14:52 9.3 °C 6.9 °C 1020.5 hPa West 14.5 km/h 22.5 km/h 85 % 0.0 mm
15:02 9.4 °C 7.0 °C 1020.5 hPa WSW 11.3 km/h 25.7 km/h 85 % 0.0 mm
15:07 9.4 °C 7.0 °C 1020.5 hPa West 16.1 km/h 24.1 km/h 85 % 0.0 mm
15:12 9.5 °C 6.9 °C 1020.5 hPa SW 14.5 km/h 24.1 km/h 84 % 0.0 mm
15:17 9.6 °C 7.0 °C 1020.5 hPa WSW 8.0 km/h 32.2 km/h 84 % 0.0 mm
15:22 9.6 °C 7.0 °C 1020.5 hPa WSW 12.9 km/h 32.2 km/h 84 % 0.0 mm
15:27 9.7 °C 7.1 °C 1020.5 hPa SW 12.9 km/h 32.2 km/h 84 % 0.0 mm
15:32 9.7 °C 7.1 °C 1020.5 hPa SW 16.1 km/h 32.2 km/h 84 % 0.0 mm
15:37 9.7 °C 7.1 °C 1020.2 hPa West 11.3 km/h 27.4 km/h 84 % 0.0 mm
15:42 9.7 °C 7.1 °C 1020.5 hPa SW 9.7 km/h 27.4 km/h 84 % 0.0 mm
15:47 9.7 °C 7.1 °C 1020.2 hPa WSW 19.3 km/h 30.6 km/h 84 % 0.0 mm
15:52 9.7 °C 7.1 °C 1020.2 hPa WSW 6.4 km/h 30.6 km/h 84 % 0.0 mm
15:57 9.7 °C 7.1 °C 1020.2 hPa SW 6.4 km/h 24.1 km/h 84 % 0.0 mm
16:02 9.7 °C 7.1 °C 1020.2 hPa WSW 9.7 km/h 24.1 km/h 84 % 0.0 mm
16:07 9.7 °C 7.1 °C 1020.2 hPa WSW 14.5 km/h 22.5 km/h 84 % 0.0 mm
16:12 9.7 °C 7.1 °C 1020.2 hPa SW 9.7 km/h 22.5 km/h 84 % 0.0 mm
16:17 9.8 °C 7.1 °C 1020.5 hPa SSW 4.8 km/h 24.1 km/h 83 % 0.0 mm
16:22 9.8 °C 7.1 °C 1020.2 hPa SSW 4.8 km/h 24.1 km/h 83 % 0.0 mm
16:32 9.8 °C 7.1 °C 1020.2 hPa WSW 9.7 km/h 24.1 km/h 83 % 0.0 mm
16:37 9.7 °C 7.0 °C 1020.2 hPa SW 12.9 km/h 24.1 km/h 83 % 0.0 mm
16:42 9.7 °C 7.0 °C 1020.2 hPa West 9.7 km/h 24.1 km/h 83 % 0.0 mm
16:47 9.7 °C 7.0 °C 1020.2 hPa West 16.1 km/h 22.5 km/h 83 % 0.0 mm
16:52 9.7 °C 7.1 °C 1019.9 hPa SSW 6.4 km/h 22.5 km/h 84 % 0.0 mm
16:57 9.7 °C 7.0 °C 1019.9 hPa West 4.8 km/h 24.1 km/h 83 % 0.0 mm
17:02 9.7 °C 7.0 °C 1019.9 hPa WSW 9.7 km/h 24.1 km/h 83 % 0.0 mm
17:07 9.7 °C 7.1 °C 1019.9 hPa SSW 6.4 km/h 19.3 km/h 84 % 0.0 mm
17:12 9.7 °C 7.1 °C 1019.9 hPa SW 4.8 km/h 19.3 km/h 84 % 0.0 mm
17:17 9.6 °C 7.0 °C 1019.9 hPa SW 4.8 km/h 19.3 km/h 84 % 0.0 mm
17:22 9.6 °C 7.0 °C 1019.9 hPa SW 11.3 km/h 19.3 km/h 84 % 0.0 mm
17:27 9.6 °C 7.0 °C 1019.9 hPa SW 16.1 km/h 20.9 km/h 84 % 0.0 mm
17:32 9.6 °C 7.0 °C 1019.9 hPa SW 17.7 km/h 20.9 km/h 84 % 0.0 mm
17:37 9.6 °C 7.0 °C 1019.5 hPa WSW 16.1 km/h 20.9 km/h 84 % 0.0 mm
17:42 9.6 °C 7.0 °C 1019.5 hPa SW 16.1 km/h 20.9 km/h 84 % 0.0 mm
17:47 9.6 °C 7.0 °C 1019.9 hPa SW 9.7 km/h 20.9 km/h 84 % 0.0 mm
17:52 9.6 °C 7.0 °C 1019.5 hPa WSW 9.7 km/h 20.9 km/h 84 % 0.0 mm
17:57 9.5 °C 6.9 °C 1019.9 hPa SW 9.7 km/h 22.5 km/h 84 % 0.0 mm
18:02 9.5 °C 6.9 °C 1019.9 hPa SW 6.4 km/h 22.5 km/h 84 % 0.0 mm
18:07 9.5 °C 6.9 °C 1019.9 hPa SW 9.7 km/h 24.1 km/h 84 % 0.0 mm
18:12 9.4 °C 6.8 °C 1019.9 hPa West 9.7 km/h 24.1 km/h 84 % 0.0 mm
18:17 9.4 °C 6.8 °C 1019.9 hPa West 6.4 km/h 24.1 km/h 84 % 0.0 mm
18:22 9.4 °C 6.8 °C 1019.9 hPa WSW 11.3 km/h 20.9 km/h 84 % 0.0 mm
18:27 9.4 °C 6.8 °C 1019.9 hPa SW 11.3 km/h 20.9 km/h 84 % 0.0 mm
18:32 9.3 °C 6.7 °C 1019.5 hPa SW 8.0 km/h 19.3 km/h 84 % 0.0 mm
18:37 9.3 °C 6.7 °C 1019.5 hPa SW 19.3 km/h 19.3 km/h 84 % 0.0 mm
18:42 9.3 °C 6.7 °C 1019.5 hPa SW 4.8 km/h 19.3 km/h 84 % 0.0 mm
18:47 9.3 °C 6.7 °C 1019.5 hPa SW 16.1 km/h 22.5 km/h 84 % 0.0 mm
18:52 9.2 °C 6.6 °C 1019.5 hPa SW 12.9 km/h 22.5 km/h 84 % 0.0 mm
18:57 9.2 °C 6.6 °C 1019.5 hPa SW 14.5 km/h 22.5 km/h 84 % 0.0 mm
19:02 9.2 °C 6.6 °C 1019.5 hPa SW 14.5 km/h 22.5 km/h 84 % 0.0 mm
19:07 9.2 °C 6.6 °C 1019.5 hPa WSW 16.1 km/h 20.9 km/h 84 % 0.0 mm
19:12 9.2 °C 6.6 °C 1019.5 hPa SW 12.9 km/h 20.9 km/h 84 % 0.0 mm
19:17 9.2 °C 6.6 °C 1019.5 hPa SW 8.0 km/h 22.5 km/h 84 % 0.0 mm
19:22 9.1 °C 6.5 °C 1019.5 hPa WSW 12.9 km/h 22.5 km/h 84 % 0.0 mm
19:32 9.1 °C 6.5 °C 1019.5 hPa South 9.7 km/h 20.9 km/h 84 % 0.0 mm
19:37 9.1 °C 6.5 °C 1019.5 hPa WSW 12.9 km/h 20.9 km/h 84 % 0.0 mm
19:42 9.1 °C 6.5 °C 1019.5 hPa SSW 11.3 km/h 20.9 km/h 84 % 0.0 mm
19:47 9.1 °C 6.5 °C 1019.5 hPa SW 8.0 km/h 20.9 km/h 84 % 0.0 mm
19:57 9.1 °C 6.5 °C 1019.5 hPa WSW 14.5 km/h 19.3 km/h 84 % 0.0 mm
20:02 9.0 °C 6.6 °C 1019.5 hPa SSW 6.4 km/h 19.3 km/h 85 % 0.0 mm
20:12 9.0 °C 6.6 °C 1019.5 hPa West 12.9 km/h 22.5 km/h 85 % 0.0 mm
20:17 8.9 °C 6.5 °C 1019.5 hPa WSW 12.9 km/h 19.3 km/h 85 % 0.0 mm
20:22 8.9 °C 6.3 °C 1019.5 hPa WSW 11.3 km/h 19.3 km/h 84 % 0.0 mm
20:27 8.9 °C 6.3 °C 1019.5 hPa SW 8.0 km/h 17.7 km/h 84 % 0.0 mm
20:32 8.9 °C 6.3 °C 1019.5 hPa WSW 8.0 km/h 17.7 km/h 84 % 0.0 mm
20:37 8.9 °C 6.3 °C 1019.5 hPa SW 3.2 km/h 20.9 km/h 84 % 0.0 mm
20:42 8.9 °C 6.3 °C 1019.5 hPa WSW 8.0 km/h 20.9 km/h 84 % 0.0 mm
20:47 8.9 °C 6.3 °C 1019.5 hPa SW 16.1 km/h 17.7 km/h 84 % 0.0 mm
20:52 8.9 °C 6.3 °C 1019.5 hPa SW 3.2 km/h 17.7 km/h 84 % 0.0 mm
20:57 8.9 °C 6.5 °C 1019.5 hPa SSW 9.7 km/h 17.7 km/h 85 % 0.0 mm
21:02 8.9 °C 6.5 °C 1019.5 hPa WSW 8.0 km/h 17.7 km/h 85 % 0.0 mm
21:07 8.8 °C 6.4 °C 1019.2 hPa SW 9.7 km/h 16.1 km/h 85 % 0.0 mm
21:12 8.8 °C 6.4 °C 1019.2 hPa SW 9.7 km/h 16.1 km/h 85 % 0.0 mm
21:17 8.8 °C 6.4 °C 1019.2 hPa SSW 6.4 km/h 19.3 km/h 85 % 0.0 mm
21:22 8.8 °C 6.4 °C 1019.2 hPa WSW 11.3 km/h 19.3 km/h 85 % 0.0 mm
21:27 8.8 °C 6.4 °C 1019.2 hPa WSW 9.7 km/h 19.3 km/h 85 % 0.0 mm
21:32 8.8 °C 6.4 °C 1019.2 hPa WSW 9.7 km/h 19.3 km/h 85 % 0.0 mm
21:37 8.8 °C 6.2 °C 1019.2 hPa West 9.7 km/h 20.9 km/h 84 % 0.0 mm
21:42 8.8 °C 6.2 °C 1019.2 hPa SW 12.9 km/h 20.9 km/h 84 % 0.0 mm
21:47 8.8 °C 6.4 °C 1019.2 hPa West 6.4 km/h 24.1 km/h 85 % 0.0 mm
21:52 8.7 °C 6.3 °C 1019.2 hPa SW 11.3 km/h 24.1 km/h 85 % 0.0 mm
22:02 8.7 °C 6.5 °C 1019.2 hPa WSW 16.1 km/h 17.7 km/h 86 % 0.0 mm
22:07 8.7 °C 6.3 °C 1018.8 hPa SW 3.2 km/h 19.3 km/h 85 % 0.0 mm
22:12 8.7 °C 6.3 °C 1018.8 hPa WSW 9.7 km/h 19.3 km/h 85 % 0.0 mm
22:17 8.7 °C 6.5 °C 1018.8 hPa WSW 8.0 km/h 22.5 km/h 86 % 0.0 mm
22:22 8.7 °C 6.5 °C 1018.8 hPa WSW 14.5 km/h 22.5 km/h 86 % 0.0 mm
22:27 8.7 °C 6.5 °C 1018.8 hPa SW 11.3 km/h 20.9 km/h 86 % 0.0 mm
22:32 8.6 °C 6.4 °C 1018.8 hPa WSW 12.9 km/h 20.9 km/h 86 % 0.0 mm
22:37 8.6 °C 6.6 °C 1018.5 hPa SW 4.8 km/h 17.7 km/h 87 % 0.0 mm
22:42 8.6 °C 6.6 °C 1018.5 hPa SW 11.3 km/h 17.7 km/h 87 % 0.0 mm
22:47 8.6 °C 6.6 °C 1018.5 hPa SW 8.0 km/h 19.3 km/h 87 % 0.0 mm
22:52 8.6 °C 6.6 °C 1018.5 hPa WSW 9.7 km/h 19.3 km/h 87 % 0.0 mm
22:57 8.6 °C 6.6 °C 1018.5 hPa SW 12.9 km/h 20.9 km/h 87 % 0.0 mm
23:02 8.5 °C 6.5 °C 1018.5 hPa SW 11.3 km/h 20.9 km/h 87 % 0.0 mm
23:12 8.4 °C 6.5 °C 1018.2 hPa SSW 8.0 km/h 20.9 km/h 88 % 0.0 mm
23:17 8.4 °C 6.4 °C 1018.2 hPa WSW 9.7 km/h 19.3 km/h 87 % 0.0 mm
23:22 8.4 °C 6.4 °C 1018.2 hPa SW 9.7 km/h 19.3 km/h 87 % 0.0 mm
23:32 8.4 °C 6.4 °C 1018.2 hPa SSW 3.2 km/h 19.3 km/h 87 % 0.0 mm
23:37 8.4 °C 6.4 °C 1018.2 hPa SSW 8.0 km/h 17.7 km/h 87 % 0.0 mm
23:42 8.4 °C 6.5 °C 1017.8 hPa SSE 4.8 km/h 17.7 km/h 88 % 0.0 mm
23:47 8.3 °C 6.4 °C 1017.8 hPa SW 6.4 km/h 14.5 km/h 88 % 0.0 mm
23:52 8.4 °C 6.5 °C 1017.8 hPa SW 8.0 km/h 14.5 km/h 88 % 0.0 mm
Meteo18
Compliments of Weather Underground - 4 mb

Script developed by  Jim McMurry - jmcmurry@mwt.net Adapted for the template by  Wim van der Kuil - Leuven-Template.eu

You find our weather info also at:

European Weather Network

Weather Underground

Equipment we use:

Weather-station
Davis Vue

Weather-program
Meteohub

Weather-server
Raspberry PI 2 B+

Provider
1 and 1

Davis Vue

Meteohub

Raspberry PI 2 B+

1 and 1